Date,TemperatureHighF,TemperatureAvgF,TemperatureLowF,DewpointHighF,DewpointAvgF,DewpointLowF,HumidityHigh,HumidityAvg,HumidityLow,PressureMaxIn,PressureMinIn,WindSpeedMaxMPH,WindSpeedAvgMPH,GustSpeedMaxMPH,PrecipitationSumIn
2012-1-1,49,31,19,19,13,6,76,52,18,30.71,30.47,6,1,8,0.00
2012-1-2,54,33,19,21,17,11,87,58,18,30.80,30.59,4,1,6,0.00
2012-1-3,49,33,21,23,19,17,85,60,31,30.60,30.41,10,2,13,0.00
2012-1-4,51,32,19,24,20,16,86,63,30,30.70,30.52,4,1,7,0.00
2012-1-5,49,32,19,24,19,16,88,65,30,30.59,30.25,7,1,10,0.00
2012-1-6,49,31,19,23,19,16,88,65,32,30.29,30.15,8,1,13,0.00
2012-1-7,53,36,23,26,20,18,84,59,27,30.16,29.93,10,2,14,0.00
2012-1-8,45,33,22,24,20,16,84,60,37,30.32,30.03,6,1,11,0.00
2012-1-9,42,28,17,20,16,14,87,65,33,30.46,30.32,6,1,10,0.00
2012-1-10,46,30,17,21,18,14,87,64,36,30.43,30.18,6,1,12,0.00
2012-1-11,47,32,18,22,11,-1,88,49,17,30.28,30.09,17,5,27,0.00
2012-1-12,36,28,17,9,2,-6,60,35,17,30.34,30.22,5,1,11,0.00
2012-1-13,43,25,11,9,4,-1,73,46,16,30.57,30.35,10,2,19,0.00
2012-1-14,50,28,14,11,5,0,72,43,13,30.63,30.38,5,1,6,0.00
2012-1-15,49,34,18,26,12,7,69,45,18,30.40,30.03,7,1,8,0.00
2012-1-16,48,38,31,37,27,19,91,65,37,30.07,29.77,13,3,22,0.07
2012-1-17,41,29,21,26,20,11,90,70,31,30.38,30.07,3,1,8,0.08
2012-1-18,48,30,18,24,19,14,87,66,33,30.46,30.22,5,1,9,0.00
2012-1-19,56,36,24,26,23,19,83,62,28,30.27,29.96,6,2,9,0.00
2012-1-20,55,38,26,30,21,15,87,57,21,30.11,29.94,16,2,17,0.00
2012-1-21,52,37,26,35,25,18,88,63,42,30.11,29.61,15,3,27,0.02
2012-1-22,40,34,26,30,24,20,95,69,50,30.19,29.67,22,6,27,0.04
2012-1-23,42,31,21,33,22,17,93,73,40,30.24,29.98,7,2,11,0.01
2012-1-24,46,36,31,36,30,24,95,82,52,30.26,29.97,12,3,18,0.07
2012-1-25,46,33,21,27,24,19,93,73,42,30.38,30.25,5,1,7,0.00
2012-1-26,49,35,24,30,26,22,92,72,44,30.38,30.03,4,1,7,0.00
2012-1-27,48,39,29,30,21,11,86,53,24,30.30,30.00,19,6,25,0.00
2012-1-28,44,32,19,20,14,6,86,54,21,30.57,30.30,8,2,12,0.00
2012-1-29,46,31,18,19,14,7,82,54,21,30.60,30.38,7,1,9,0.00
2012-1-30,57,35,20,23,16,10,81,53,17,30.38,30.03,7,1,9,0.00
2012-1-31,51,36,25,22,19,15,77,54,24,30.26,30.10,10,2,13,0.00
2012-2-1,49,37,23,26,21,18,83,55,30,30.37,30.07,6,1,8,0.00
2012-2-2,46,38,34,33,28,20,93,68,41,30.06,29.76,11,3,16,0.00
2012-2-3,45,36,30,32,29,25,94,78,47,30.24,29.91,7,2,9,0.01
2012-2-4,47,36,27,27,23,16,91,64,30,30.35,30.21,7,2,12,0.00
2012-2-5,44,36,31,31,27,23,90,71,46,30.31,30.12,9,4,18,0.01
2012-2-6,45,36,28,31,26,18,93,70,36,30.18,30.04,10,2,15,0.00
2012-2-7,45,32,24,25,22,18,92,70,36,30.38,30.19,7,2,9,0.00
2012-2-8,52,38,27,24,20,18,70,50,27,30.40,30.19,6,2,9,0.00
2012-2-9,51,41,33,31,25,20,82,55,31,30.22,30.07,19,6,27,0.00
2012-2-10,52,37,23,25,22,19,84,59,33,30.31,30.16,13,2,17,0.00
2012-2-11,58,42,25,27,24,21,85,53,26,30.23,29.90,12,2,15,0.00
2012-2-12,41,37,31,34,29,22,94,76,50,29.93,29.71,10,3,16,0.12
2012-2-13,45,38,33,33,32,27,96,79,50,29.93,29.81,9,2,14,0.03
2012-2-14,47,38,33,33,30,23,91,76,41,29.85,29.71,11,2,14,0.00
2012-2-15,42,34,26,29,24,21,92,70,43,30.14,29.84,9,2,14,0.00
2012-2-16,52,38,27,24,22,19,85,57,28,30.25,30.08,7,1,10,0.00
2012-2-17,51,36,23,24,20,15,88,58,25,30.17,29.98,13,4,21,0.00
2012-2-18,52,37,22,21,16,8,82,47,17,30.16,29.97,10,2,13,0.00
2012-2-19,48,35,29,33,23,16,93,64,28,30.00,29.72,13,3,21,0.03
2012-2-20,40,30,22,26,12,0,84,51,21,30.28,29.91,12,5,18,0.02
2012-2-21,49,33,19,20,16,13,81,53,27,30.36,30.18,12,3,21,0.02
2012-2-22,56,40,26,27,23,17,74,52,32,30.23,29.81,12,3,22,0.00
2012-2-23,52,38,28,28,16,-3,83,47,14,30.16,29.75,24,6,31,0.00
2012-2-24,48,33,18,11,8,1,74,39,16,30.39,30.16,9,2,14,0.00
2012-2-25,61,40,20,16,10,3,70,35,13,30.34,29.87,9,3,20,0.00
2012-2-26,50,35,22,12,2,-17,65,31,6,30.13,29.91,12,2,17,0.00
2012-2-27,60,46,26,28,16,0,48,32,20,30.13,29.66,18,6,28,0.00
2012-2-28,47,38,32,37,26,21,94,62,42,30.12,29.59,19,6,24,0.17
2012-2-29,50,37,24,25,21,15,82,56,26,30.28,29.95,6,2,10,0.00
2012-3-1,49,34,26,32,22,15,86,66,27,29.95,29.75,19,3,27,0.01
2012-3-2,37,29,24,26,18,10,92,67,35,30.35,29.80,22,7,30,0.05
2012-3-3,41,30,21,20,12,6,63,49,37,30.48,30.35,19,6,23,0.00
2012-3-4,52,36,22,27,23,19,85,61,36,30.49,30.27,6,1,9,0.00
2012-3-5,62,42,26,29,23,12,87,54,14,30.35,30.01,6,1,9,0.00
2012-3-6,65,48,34,26,18,7,67,38,10,30.00,29.47,14,4,29,0.00
2012-3-7,53,45,34,25,16,7,68,34,17,29.88,29.47,25,8,32,0.00
2012-3-8,51,40,31,36,31,25,94,73,39,30.47,29.89,16,3,20,0.05
2012-3-9,53,41,28,29,23,16,84,54,24,30.50,30.19,6,2,11,0.00
2012-3-10,50,41,33,33,31,27,86,70,51,30.20,29.89,12,2,16,0.00
2012-3-11,63,46,28,31,20,7,92,46,12,29.93,29.78,15,4,24,0.00
2012-3-12,61,46,30,24,17,9,68,38,13,30.11,29.90,7,1,9,0.00
2012-3-13,69,49,31,24,11,-10,66,31,4,30.08,29.85,7,2,8,0.00
2012-3-14,68,48,28,19,5,-12,57,26,4,30.10,29.96,8,2,12,0.00
2012-3-15,71,51,31,18,10,0,49,24,7,30.17,29.94,7,2,9,0.00
2012-3-16,72,52,32,22,10,-9,54,26,4,29.99,29.72,9,2,14,0.00
2012-3-17,68,56,37,20,12,2,45,21,8,29.77,29.52,14,4,21,0.00
2012-3-18,59,42,31,37,23,16,79,49,22,29.68,29.30,28,6,39,0.00
2012-3-19,38,32,27,27,23,19,88,72,52,29.89,29.66,12,4,22,0.05
2012-3-20,52,40,27,25,15,2,87,45,13,30.07,29.88,18,7,22,0.00
2012-3-21,63,45,26,24,18,13,67,38,21,30.10,29.83,19,4,27,0.00
2012-3-22,69,50,30,25,20,11,72,36,13,29.96,29.75,15,3,21,0.00
2012-3-23,74,53,32,25,17,5,55,29,7,30.04,29.82,7,2,10,0.00
2012-3-24,75,55,36,24,19,12,51,29,10,30.03,29.80,10,2,14,0.00
2012-3-25,74,58,39,26,22,16,51,28,11,29.91,29.66,9,2,11,0.00
2012-3-26,70,58,46,24,18,8,38,23,10,29.83,29.64,14,4,22,0.00
2012-3-27,72,50,33,21,17,9,52,31,9,30.00,29.81,6,1,13,0.00
2012-3-28,73,51,35,21,14,0,50,27,6,29.99,29.76,8,2,11,0.00
2012-3-29,70,54,38,23,18,13,50,28,11,29.91,29.75,12,2,18,0.00
2012-3-30,73,56,37,25,20,15,54,28,11,29.92,29.75,11,2,15,0.00
2012-3-31,80,60,41,26,20,9,49,26,9,29.89,29.58,8,2,14,0.00
2012-4-1,73,57,41,25,18,10,48,25,9,29.66,29.32,19,6,28,0.00
2012-4-2,48,43,38,35,26,11,79,54,24,29.79,29.45,21,6,24,0.01
2012-4-3,57,44,37,36,31,24,83,63,29,29.97,29.78,13,3,24,0.00
2012-4-4,69,49,32,36,29,19,94,55,16,30.02,29.75,12,2,18,0.00
2012-4-5,70,55,36,28,22,15,60,32,13,29.84,29.63,7,2,14,0.00
2012-4-6,66,54,41,19,4,-15,39,17,5,29.97,29.69,15,5,21,0.00
2012-4-7,65,47,27,13,-1,-26,50,19,2,30.25,29.98,8,1,11,0.00
2012-4-8,76,57,37,23,13,5,35,20,9,30.26,29.94,6,2,10,0.00
2012-4-9,79,63,45,33,21,12,44,24,8,30.00,29.74,12,2,18,0.00
2012-4-10,80,63,45,37,29,15,60,33,9,29.88,29.64,21,4,28,0.00
2012-4-11,79,64,50,37,27,9,54,30,7,29.74,29.41,22,7,30,0.00
2012-4-12,62,51,43,31,21,-6,55,34,7,29.76,29.66,18,3,26,0.00
2012-4-13,58,49,34,19,12,-1,39,23,12,29.84,29.60,11,4,17,0.00
2012-4-14,52,43,34,33,18,-2,88,44,12,29.77,29.47,20,5,26,0.00
2012-4-15,57,43,34,32,28,17,84,58,22,30.06,29.76,14,5,26,0.02
2012-4-16,62,46,30,30,21,15,77,44,17,30.20,30.06,14,3,19,0.00
2012-4-17,71,52,33,24,18,13,56,31,11,30.21,29.92,7,2,15,0.00
2012-4-18,75,58,37,25,20,12,52,27,10,30.00,29.69,9,2,14,0.00
2012-4-19,70,61,53,37,29,21,43,30,21,29.82,29.67,18,6,26,0.00
2012-4-20,74,61,42,30,28,24,60,31,16,29.98,29.82,15,4,22,0.00
2012-4-21,82,64,42,31,23,12,58,26,8,29.98,29.77,8,2,14,0.00
2012-4-22,84,65,44,26,17,0,47,21,4,29.96,29.76,8,2,15,0.00
2012-4-23,86,65,49,34,20,2,37,22,4,29.94,29.67,9,2,14,0.00
2012-4-24,86,68,48,30,22,8,42,21,6,29.83,29.57,9,3,17,0.00
2012-4-25,78,65,47,37,27,14,44,26,12,29.80,29.66,18,3,26,0.00
2012-4-26,79,62,46,42,34,18,82,41,11,29.77,29.40,23,4,35,0.02
2012-4-27,69,57,46,42,33,20,82,46,17,29.80,29.69,14,4,22,0.00
2012-4-28,68,56,41,29,23,19,58,31,16,29.81,29.66,15,3,21,0.00
2012-4-29,71,56,39,27,19,6,59,29,9,29.85,29.73,15,3,19,0.00
2012-4-30,77,58,37,25,16,10,46,23,8,29.94,29.68,16,2,17,0.00
2012-5-1,76,61,42,29,23,18,45,25,13,29.74,29.54,14,2,19,0.00
2012-5-2,78,62,44,31,26,21,50,27,13,29.72,29.59,11,2,14,0.00
2012-5-3,81,65,44,34,24,16,54,26,10,29.85,29.62,9,2,20,0.00
2012-5-4,84,67,48,29,21,9,45,21,6,29.82,29.61,10,2,15,0.00
2012-5-5,79,64,45,25,18,9,43,20,7,29.79,29.60,11,2,15,0.00
2012-5-6,77,62,42,27,18,11,52,21,9,29.80,29.64,12,2,19,0.00
2012-5-7,72,55,46,39,28,14,61,38,13,29.90,29.62,25,4,25,0.00
2012-5-8,73,56,40,39,34,16,83,50,12,30.00,29.82,11,4,15,0.00
2012-5-9,76,62,45,38,32,24,65,37,15,29.98,29.67,12,2,19,0.00
2012-5-10,80,64,46,37,29,20,57,31,11,29.75,29.49,16,2,24,0.00
2012-5-11,82,66,45,38,28,17,59,28,9,29.78,29.56,13,3,24,0.00
2012-5-12,79,67,54,43,34,19,66,35,12,29.91,29.75,14,4,18,0.00
2012-5-13,75,61,49,44,38,22,80,45,14,29.99,29.78,13,3,24,0.18
2012-5-14,76,59,41,44,37,29,93,53,18,30.12,29.91,8,1,13,0.00
2012-5-15,84,67,48,41,30,13,68,32,8,30.01,29.74,21,4,24,0.00
2012-5-16,83,70,54,31,24,12,36,19,7,29.84,24.56,15,3,31,0.00
2012-5-17,86,70,46,36,24,11,53,23,6,24.68,24.46,13,3,20,0.00
2012-5-18,83,71,55,31,18,3,38,16,5,24.52,24.36,18,6,28,0.00
2012-5-19,75,64,51,33,26,16,43,25,12,24.70,24.52,12,4,25,0.00
2012-5-20,82,65,45,32,22,8,48,24,6,24.84,24.71,11,2,13,0.00
2012-5-21,89,70,47,42,28,19,50,24,8,24.86,24.64,9,2,15,0.00
2012-5-22,90,70,51,35,21,-1,48,22,3,24.70,24.44,14,2,19,0.00
2012-5-23,89,76,53,32,20,11,41,14,7,24.45,24.19,17,7,32,0.00
2012-5-24,78,67,55,31,22,18,28,19,12,24.48,24.33,9,3,15,0.00
2012-5-25,86,74,62,39,28,17,39,20,8,24.47,24.36,20,7,27,0.00
2012-5-26,82,68,53,31,18,-4,41,17,8,24.60,24.38,23,7,33,0.00
2012-5-27,69,56,38,25,12,-5,41,19,8,24.69,24.60,12,3,22,0.00
2012-5-28,76,59,37,23,16,6,52,23,7,24.78,24.66,15,3,16,0.00
2012-5-29,85,66,43,27,12,-6,43,18,3,24.79,24.60,11,3,15,0.00
2012-5-30,86,70,47,31,11,-5,47,15,3,24.73,24.57,13,4,23,0.00
2012-5-31,89,72,49,31,22,15,46,18,7,24.72,24.56,11,3,15,0.00
2012-6-1,92,75,53,33,27,16,46,20,7,24.70,24.55,18,3,21,0.00
2012-6-2,91,75,56,37,27,20,40,20,8,24.64,24.48,11,3,20,0.00
2012-6-3,92,76,53,34,24,11,43,17,5,24.69,24.58,14,2,26,0.00
2012-6-4,92,78,65,41,33,20,41,22,7,24.70,24.57,19,4,24,0.00
2012-6-5,91,75,58,43,27,6,50,23,4,24.67,24.46,13,3,34,0.00
2012-6-6,90,75,54,34,22,9,39,16,5,24.64,24.47,8,2,13,0.00
2012-6-7,89,72,50,33,22,10,38,19,6,24.70,24.57,9,2,14,0.00
2012-6-8,92,74,53,35,21,6,43,18,4,24.70,24.49,10,2,18,0.00
2012-6-9,90,76,53,31,20,13,36,15,7,24.61,24.41,13,4,25,0.00
2012-6-10,80,72,62,26,17,7,24,13,7,24.67,24.47,18,6,22,0.00
2012-6-11,86,69,47,30,17,1,47,19,4,24.81,24.67,11,2,14,0.00
2012-6-12,91,73,51,35,23,10,43,19,5,24.81,24.59,11,2,15,0.00
2012-6-13,94,75,52,31,15,-14,42,16,2,0.00,40.00,10,2,14,0.00
2012-6-14,91,75,53,31,18,-1,33,15,3,24.64,24.53,9,2,13,0.00
2012-6-15,91,75,52,35,23,10,40,17,5,24.67,24.55,19,3,22,0.00
2012-6-16,91,77,58,36,27,11,41,19,5,24.76,24.62,11,2,17,0.00
2012-6-17,93,77,59,44,25,6,39,19,4,24.79,24.56,19,4,23,0.00
2012-6-18,93,76,53,38,21,1,58,18,3,24.66,24.46,17,4,25,0.00
2012-6-19,93,75,53,33,22,6,44,18,4,24.58,24.44,11,2,17,0.00
2012-6-20,92,75,53,36,22,10,48,18,5,24.67,24.50,20,4,24,0.00
2012-6-21,98,79,55,43,31,21,37,19,7,24.78,24.58,22,4,26,0.00
2012-6-22,99,85,69,46,33,16,38,18,5,24.70,24.50,17,4,25,0.00
2012-6-23,99,82,61,40,31,20,36,18,7,24.66,24.55,21,4,32,0.00
2012-6-24,101,85,65,44,36,22,44,20,6,24.76,24.61,8,2,16,0.00
2012-6-25,97,84,64,46,35,25,34,19,10,24.77,24.59,11,3,20,0.00
2012-6-26,96,82,67,49,43,37,45,27,13,24.72,24.55,13,3,40,0.00
2012-6-27,92,79,68,52,48,41,54,36,18,24.78,24.67,25,3,38,0.03
2012-6-28,94,80,65,55,47,38,70,36,15,24.85,24.72,13,3,18,0.00
2012-6-29,97,83,62,50,40,28,57,26,9,24.83,24.64,12,3,18,0.00
2012-6-30,99,82,60,43,34,11,47,22,4,24.75,24.57,10,2,14,0.00
2012-7-1,100,84,62,43,36,25,47,21,7,24.68,24.55,11,3,18,0.00
2012-7-2,97,84,69,48,42,29,40,24,9,24.70,24.58,16,3,19,0.00
2012-7-3,96,80,68,59,48,38,63,35,14,24.70,24.53,14,2,21,0.07
2012-7-4,93,78,65,61,52,42,82,45,17,24.75,24.55,16,2,25,0.07
2012-7-5,83,72,64,62,58,50,90,64,35,24.79,24.66,14,3,24,0.02
2012-7-6,85,72,61,59,55,50,84,57,31,24.81,24.71,9,2,13,0.00
2012-7-7,81,72,64,62,56,51,81,57,38,24.89,24.78,12,3,22,0.05
2012-7-8,89,72,63,62,57,50,90,64,28,24.89,24.73,16,2,18,0.65
2012-7-9,88,72,64,62,59,52,91,66,30,24.87,24.73,15,2,25,0.02
2012-7-10,89,74,62,60,55,44,88,56,24,24.90,24.71,13,2,18,0.00
2012-7-11,92,77,61,57,52,41,78,46,20,24.87,24.67,12,3,18,0.00
2012-7-12,93,77,63,57,52,42,75,45,19,24.83,24.66,7,2,13,0.00
2012-7-13,92,78,69,55,51,44,56,40,20,24.82,24.71,14,3,21,0.00
2012-7-14,88,75,66,63,55,46,75,53,24,24.84,24.69,9,2,20,0.05
2012-7-15,86,72,64,60,55,45,80,57,26,24.83,24.71,16,2,32,0.01
2012-7-16,86,74,64,61,53,43,90,54,23,24.78,24.63,9,2,16,0.03
2012-7-17,89,76,60,53,47,38,75,39,19,24.77,24.64,12,2,17,0.00
2012-7-18,95,79,62,49,44,36,61,32,13,24.79,24.65,9,2,23,0.00
2012-7-19,94,80,68,60,50,46,55,37,20,24.86,24.71,14,2,23,0.05
2012-7-20,95,82,67,56,47,32,63,34,11,24.87,24.71,14,3,16,0.00
2012-7-21,93,81,68,52,49,45,51,34,21,24.87,24.71,9,2,14,0.00
2012-7-22,92,80,67,54,49,41,64,36,18,24.87,24.73,15,2,19,0.00
2012-7-23,93,80,67,53,50,44,58,38,18,24.85,24.68,14,4,22,0.00
2012-7-24,88,76,63,59,53,48,74,48,25,24.82,24.66,13,3,20,0.02
2012-7-25,92,78,62,60,52,43,87,47,19,24.77,24.61,18,4,25,0.00
2012-7-26,96,79,64,53,48,40,62,36,14,24.80,24.65,16,3,34,0.00
2012-7-27,86,75,68,63,55,49,74,51,29,24.85,24.77,9,2,18,0.26
2012-7-28,92,79,64,60,54,45,82,47,21,24.87,24.71,10,2,14,0.00
2012-7-29,91,79,66,62,55,48,83,47,24,24.87,24.71,9,2,16,0.02
2012-7-30,94,80,66,59,52,41,74,42,16,24.85,24.69,9,2,13,0.00
2012-7-31,94,79,72,53,49,43,49,36,18,24.84,24.72,14,3,27,0.00
2012-8-1,89,77,62,56,51,46,75,43,23,24.87,24.72,11,2,15,0.00
2012-8-2,88,78,66,53,50,46,58,39,24,24.79,24.67,15,3,21,0.00
2012-8-3,89,76,63,52,49,40,63,41,20,24.75,24.66,13,3,25,0.00
2012-8-4,91,76,63,54,49,39,69,42,17,24.79,24.71,10,2,19,0.00
2012-8-5,90,77,65,57,51,46,57,42,23,24.98,24.81,20,3,32,0.05
2012-8-6,91,78,67,57,52,46,68,44,22,24.98,24.80,11,3,15,0.00
2012-8-7,95,80,64,54,50,40,65,38,15,24.89,24.73,14,3,21,0.00
2012-8-8,96,81,67,51,48,41,55,33,15,24.89,24.74,17,2,21,0.00
2012-8-9,95,80,65,49,46,42,56,32,16,24.89,24.76,15,3,23,0.00
2012-8-10,96,81,65,50,45,37,57,32,13,24.86,24.67,10,2,27,0.00
2012-8-11,97,84,68,51,43,34,50,27,12,24.78,24.65,14,3,29,0.00
2012-8-12,95,80,65,60,46,38,55,32,14,24.81,24.71,11,2,14,0.12
2012-8-13,92,79,69,53,49,44,55,36,19,24.85,24.64,10,3,26,0.00
2012-8-14,90,78,64,54,49,42,68,40,19,24.78,24.64,11,3,20,0.00
2012-8-15,93,78,62,50,44,36,61,34,14,24.73,24.57,11,3,18,0.00
2012-8-16,94,78,61,52,42,30,57,31,10,24.77,24.63,18,2,29,0.00
2012-8-17,90,78,67,52,49,43,58,38,22,24.81,24.68,10,3,22,0.00
2012-8-18,93,75,62,55,49,41,65,43,16,24.77,24.60,9,2,16,0.04
2012-8-19,94,78,63,51,45,35,62,36,13,24.78,24.61,11,2,14,0.00
2012-8-20,88,77,66,52,47,41,53,36,23,24.77,24.63,13,2,18,0.00
2012-8-21,93,78,64,55,43,24,64,35,9,24.78,24.64,11,2,12,0.00
2012-8-22,85,75,66,62,54,50,86,51,30,24.78,24.65,11,2,21,0.17
2012-8-23,74,67,63,62,60,55,94,78,54,24.74,24.66,11,2,16,0.03
2012-8-24,78,67,57,60,57,55,94,72,46,24.73,24.59,15,2,16,0.06
2012-8-25,90,73,57,57,50,36,88,51,15,24.70,24.59,6,1,10,0.00
2012-8-26,93,78,64,52,47,41,59,36,17,24.81,24.68,12,2,17,0.00
2012-8-27,92,80,68,54,48,43,58,35,19,24.89,24.74,10,2,18,0.01
2012-8-28,92,80,67,56,45,35,56,32,13,24.92,24.71,7,2,11,0.00
2012-8-29,95,80,62,46,40,34,50,27,12,24.81,24.63,9,2,18,0.00
2012-8-30,94,80,64,50,42,34,44,27,12,24.74,24.57,13,2,21,0.00
2012-8-31,92,77,61,46,41,32,56,30,13,24.77,24.66,16,2,27,0.00
2012-9-1,90,75,61,54,46,42,61,40,20,24.82,24.69,14,3,26,0.00
2012-9-2,88,76,63,54,50,47,72,43,26,24.84,24.71,9,2,17,0.00
2012-9-3,90,79,66,54,46,33,63,34,13,24.84,24.71,13,3,19,0.00
2012-9-4,90,76,57,47,43,34,65,35,15,24.83,24.68,14,3,23,0.00
2012-9-5,91,78,66,46,35,20,47,25,8,24.79,24.64,12,2,17,0.00
2012-9-6,92,74,56,41,32,26,46,24,10,24.77,24.63,7,2,15,0.00
2012-9-7,91,75,59,49,40,31,52,31,14,24.79,24.66,18,4,22,0.00
2012-9-8,82,72,63,48,44,31,53,38,22,24.92,24.76,14,4,21,0.00
2012-9-9,84,71,56,50,44,38,64,41,20,24.92,24.73,9,2,16,0.00
2012-9-10,85,72,59,52,48,40,68,45,21,24.83,24.66,14,2,19,0.00
2012-9-11,80,69,63,56,52,47,72,55,32,24.76,24.67,10,2,17,0.00
2012-9-12,76,63,58,58,56,51,91,78,44,24.86,24.71,13,3,15,0.69
2012-9-13,77,63,52,56,50,41,95,69,29,25.00,24.86,7,1,32,0.06
2012-9-14,76,63,52,51,44,34,87,54,22,25.06,24.88,7,2,14,0.00
2012-9-15,83,66,49,46,40,30,83,45,15,24.95,24.75,12,2,16,0.00
2012-9-16,85,67,48,43,32,10,77,36,6,24.86,24.69,14,2,18,0.00
2012-9-17,82,66,49,41,30,15,69,32,9,24.77,24.64,14,3,23,0.00
2012-9-18,82,64,47,40,32,17,70,36,9,24.91,24.76,10,2,15,0.00
2012-9-19,84,64,46,39,27,11,65,33,7,24.89,24.75,11,2,17,0.00
2012-9-20,84,65,46,34,26,15,58,28,8,24.87,24.71,17,3,21,0.00
2012-9-21,84,64,47,37,26,5,54,29,5,24.87,24.73,5,1,11,0.00
2012-9-22,86,65,47,38,28,15,53,30,8,24.91,24.76,8,1,12,0.00
2012-9-23,86,68,50,39,32,25,59,30,11,24.91,24.77,10,1,18,0.00
2012-9-24,75,64,56,53,42,35,84,47,26,24.85,24.67,10,1,23,0.05
2012-9-25,72,61,53,51,47,40,87,63,33,24.76,24.63,11,2,22,0.03
2012-9-26,75,62,52,51,45,-100,91,61,29,24.76,24.67,10,2,17,0.34
2012-9-27,75,62,50,49,42,34,87,53,24,24.85,24.73,9,2,14,0.00
2012-9-28,77,61,46,44,39,31,84,49,19,24.84,24.68,8,2,13,0.00
2012-9-29,78,63,47,47,38,29,75,45,17,24.86,24.71,13,2,17,0.00
2012-9-30,81,64,45,41,34,24,74,38,13,24.85,24.69,14,3,22,0.00
2012-10-1,80,64,44,37,33,28,66,35,15,24.90,24.73,13,2,16,0.00
2012-10-2,81,63,44,38,31,21,68,36,11,24.81,24.63,16,2,20,0.00
2012-10-3,84,63,45,35,29,21,58,33,10,24.75,24.64,12,2,20,0.00
2012-10-4,81,63,45,36,29,22,64,32,12,24.83,24.68,12,2,20,0.00
2012-10-5,77,65,47,34,28,19,57,27,12,24.77,24.64,14,3,18,0.00
2012-10-6,72,60,49,34,25,13,56,30,11,24.70,24.59,13,2,20,0.00
2012-10-7,67,54,37,31,16,3,61,29,8,24.74,24.64,18,4,22,0.00
2012-10-8,71,51,34,31,16,5,52,29,8,24.79,24.65,9,1,12,0.00
2012-10-9,74,56,41,31,28,23,58,37,17,24.78,24.66,10,2,17,0.00
2012-10-10,80,60,42,33,29,24,60,35,13,24.83,24.64,6,1,11,0.00
2012-10-11,77,60,44,48,34,26,62,40,15,24.78,24.65,12,2,24,0.01
2012-10-12,68,58,46,51,37,26,72,50,20,24.74,24.61,17,3,28,0.04
2012-10-13,61,49,36,38,35,32,87,61,41,24.84,24.73,14,4,21,0.00
2012-10-14,68,54,40,39,36,33,83,55,28,24.98,24.83,7,1,11,0.00
2012-10-15,73,54,37,37,32,23,78,48,16,24.91,24.71,11,2,15,0.00
2012-10-16,74,55,38,34,30,27,70,44,17,24.75,24.50,11,2,15,0.00
2012-10-17,68,56,43,36,14,-10,59,28,5,24.74,24.53,20,4,22,0.00
2012-10-18,69,55,41,15,8,4,29,17,9,24.82,24.69,24,6,27,0.00
2012-10-19,72,53,33,25,19,14,56,29,13,24.84,24.65,9,2,15,0.00
2012-10-20,77,54,36,26,21,16,52,32,10,24.72,24.51,5,1,8,0.00
2012-10-21,72,55,40,34,28,19,54,36,23,24.69,24.55,7,1,11,0.00
2012-10-22,71,54,39,36,31,27,65,44,23,24.70,24.57,9,1,10,0.00
2012-10-23,75,59,40,37,29,24,66,37,18,24.68,24.52,13,3,21,0.00
2012-10-24,72,58,42,33,23,5,55,30,9,24.66,24.43,18,5,26,0.00
2012-10-25,56,45,32,23,17,10,66,35,19,24.83,24.66,11,2,17,0.00
2012-10-26,53,41,30,16,9,-5,49,29,9,24.97,24.83,9,2,11,0.00
2012-10-27,58,41,22,11,6,-1,54,27,10,24.87,24.73,14,3,17,0.00
2012-10-28,66,48,32,23,14,7,47,27,16,24.87,24.75,11,2,17,0.00
2012-10-29,70,50,34,22,18,14,53,32,12,24.92,24.78,9,2,14,0.00
2012-10-30,70,49,33,21,18,14,50,31,14,24.89,24.74,13,2,17,0.00
2012-10-31,68,48,33,25,20,17,57,36,17,24.87,24.75,9,1,10,0.00
2012-11-1,73,49,32,20,17,13,51,31,10,24.85,24.66,7,1,10,0.00
2012-11-2,66,47,35,18,14,10,44,29,12,24.77,24.69,5,1,7,0.00
2012-11-3,66,47,32,19,15,11,49,31,13,24.86,24.75,10,2,13,0.00
2012-11-4,66,47,29,18,15,11,54,31,15,24.95,24.83,10,3,20,0.00
2012-11-5,70,50,32,27,21,15,56,34,20,24.97,24.80,13,2,19,0.00
2012-11-6,67,48,32,26,23,20,65,40,19,24.95,24.81,8,1,10,0.00
2012-11-7,70,48,33,25,21,17,53,37,17,24.90,24.71,6,1,9,0.00
2012-11-8,69,49,36,33,20,15,52,35,14,24.74,24.55,7,1,8,0.00
2012-11-9,60,53,45,45,40,32,89,62,44,24.60,24.42,20,5,26,0.14
2012-11-10,50,40,32,39,20,-1,89,50,16,24.55,24.36,13,5,24,0.27
2012-11-11,37,31,24,18,11,2,72,47,24,24.97,24.56,16,4,26,0.00
2012-11-12,42,29,19,18,12,5,77,53,24,25.10,24.94,5,1,8,0.00
2012-11-13,48,32,20,19,15,10,82,54,22,25.00,24.89,8,1,13,0.00
2012-11-14,57,36,22,23,18,13,79,53,18,25.00,24.83,6,1,9,0.00
2012-11-15,55,39,26,23,20,17,75,50,23,24.95,24.88,5,1,9,0.00
2012-11-16,63,47,36,24,22,20,59,41,20,24.92,24.76,7,1,11,0.00
2012-11-17,64,47,32,29,25,21,69,46,26,24.87,24.71,15,3,23,0.00
2012-11-18,59,45,34,34,29,27,74,56,33,24.86,24.74,6,1,10,0.00
2012-11-19,60,42,30,31,26,22,81,56,27,24.95,24.86,5,1,9,0.00
2012-11-20,61,42,30,27,23,21,72,51,23,24.99,24.83,6,1,9,0.00
2012-11-21,63,43,30,24,20,18,66,44,18,24.89,24.72,6,1,8,0.00
2012-11-22,59,42,28,22,20,17,65,44,23,24.95,24.78,11,2,15,0.00
2012-11-23,59,40,27,24,21,18,70,49,26,25.08,24.96,5,1,7,0.00
2012-11-24,58,39,26,24,20,16,72,50,24,25.00,24.77,7,1,11,0.00
2012-11-25,62,39,26,22,17,14,64,45,19,24.79,24.60,7,1,8,0.00
2012-11-26,57,38,24,20,16,12,69,45,19,24.93,24.69,10,1,12,0.00
2012-11-27,61,37,21,18,14,11,68,43,17,25.02,24.88,6,1,9,0.00
2012-11-28,64,41,26,20,16,12,57,39,16,24.99,24.80,6,1,9,0.00
2012-11-29,58,40,29,29,22,17,67,51,31,24.89,24.80,8,1,12,0.00
2012-11-30,57,42,30,30,25,23,74,54,31,24.87,24.75,6,1,9,0.00
2012-12-1,59,42,31,29,25,22,69,53,31,24.84,24.75,6,0,8,0.00
2012-12-2,62,44,33,28,23,19,70,47,21,24.83,24.66,5,1,8,0.00
2012-12-3,57,44,34,36,27,19,70,52,42,24.88,24.68,14,3,21,0.00
2012-12-4,55,38,27,28,24,21,82,59,27,25.06,24.89,6,1,9,0.00
2012-12-5,60,40,29,26,22,19,71,51,26,24.97,24.71,4,0,7,0.00
2012-12-6,55,39,28,26,22,19,69,52,30,24.70,24.58,6,1,11,0.00
2012-12-7,55,39,27,30,24,21,78,57,33,24.66,24.58,11,2,17,0.00
2012-12-8,53,36,25,27,21,16,81,57,28,24.64,24.51,8,1,11,0.00
2012-12-9,36,28,22,27,6,-16,83,46,12,24.82,24.53,18,5,30,0.00
2012-12-10,36,24,10,9,1,-9,55,37,25,24.84,24.66,10,2,16,0.00
2012-12-11,43,29,15,14,11,6,69,49,30,24.77,24.68,14,2,19,0.00
2012-12-12,49,33,18,13,11,9,67,43,23,24.77,24.64,8,2,11,0.00
2012-12-13,56,38,25,17,13,10,59,39,21,24.75,24.55,8,2,12,0.00
2012-12-14,44,38,35,37,31,16,92,77,40,24.62,24.34,12,2,18,0.33
2012-12-15,40,34,30,33,30,26,95,86,70,24.61,24.46,7,1,12,0.12
2012-12-16,33,27,21,27,23,18,92,84,73,24.73,24.55,6,1,11,0.11
2012-12-17,37,29,20,27,23,16,89,80,62,24.76,24.63,4,1,8,0.01
2012-12-18,42,34,26,33,29,23,91,80,64,24.62,24.32,8,1,15,0.00
2012-12-19,38,28,18,34,22,6,94,77,49,24.93,24.26,19,5,24,0.02
2012-12-20,30,17,7,15,8,3,84,71,46,25.12,24.93,5,1,8,0.01
2012-12-21,44,23,11,23,14,7,86,72,39,25.03,24.84,8,2,11,0.02
2012-12-22,41,28,18,23,18,14,86,70,39,24.89,24.75,8,1,8,0.00
2012-12-23,46,31,23,26,22,18,87,70,42,24.82,24.68,8,1,8,0.00
2012-12-24,40,31,25,31,26,22,94,83,49,24.68,24.41,18,2,19,0.03
2012-12-25,34,26,21,25,18,14,86,70,56,24.75,24.48,13,3,19,0.03
2012-12-26,41,30,20,28,20,15,86,70,43,24.72,24.42,7,1,13,0.00
2012-12-27,35,29,24,27,24,20,93,82,57,24.57,24.45,7,1,12,0.01
2012-12-28,32,26,17,23,18,12,93,74,53,24.86,24.57,14,4,19,0.00
2012-12-29,33,22,11,18,12,6,84,67,43,24.91,24.71,6,2,13,0.00
2012-12-30,43,32,24,30,18,13,88,58,37,24.70,24.47,9,1,13,0.00
2012-12-31,32,26,17,30,23,14,93,87,77,24.71,24.48,14,3,19,0.01
2013-1-1,30,18,7,18,12,4,89,77,58,24.86,24.71,12,2,16,0.00